Mackinac Island, MI

10:03 PM EDT on July 25, 2016 (GMT -0400)
Mackinac Island

Weather History for KMCD - August, 2013

Change the Weather History Date:

Friday, August 30, 2013

  Actual Average Record
Temperature  
Mean Temperature 70 °F -  
Max Temperature 74 °F 70 °F 82 °F (1984)
Min Temperature 66 °F 56 °F 38 °F (1976)
Cooling Degree Days 6    
Growing Degree Days 20 (Base 50)    
Moisture  
Dew Point 66 °F    
Average Humidity 85    
Maximum Humidity 97    
Minimum Humidity 71    
Precipitation  
Precipitation 0.59 in - - ()
Sea Level Pressure  
Sea Level Pressure 29.82 in    
Wind  
Wind Speed 8 mph (WSW)    
Max Wind Speed 15 mph    
Max Gust Speed 20 mph    
Visibility 9 miles    
Events Rain    
Averages and records for this station are not official NWS values.
T = Trace of Precipitation, MM = Missing Value Source: NWS Daily Summary

Daily Weather History Graph

Daily Weather History Graph

Search for Another Location

Airport or City:

Trip Planner

Search our weather history database for the weather conditions in past years. The results will help you decide how hot, cold, wet, or windy it might be!

Date:

Astronomy

Aug. 30, 2013 Rise Set
Actual Time 6:57 AM EDT 8:19 PM EDT
Civil Twilight 6:26 AM EDT 8:50 PM EDT
Nautical Twilight 5:48 AM EDT 9:28 PM EDT
Astronomical Twilight 5:08 AM EDT 10:07 PM EDT
Moon 1:25 AM EDT (8/30) 4:44 PM EDT (8/30)
Length of Visible Light 14h 24m
Length of Day
13h 22m
Waning Crescent, 29% of the Moon is Illuminated
Aug 30
Waning Crescent
Sep 5
New
Sep 12
First Quarter
Sep 19
Full
Sep 26
Last Quarter

Hourly Weather History & Observations

Time (EDT) Temp. Dew Point Humidity Pressure Visibility Wind Dir Wind Speed Gust Speed Precip Events Conditions
12:15 AM 73.0 °F 66.6 °F 80% 29.94 in 10.0 mi South 8.1 mph - N/A   Scattered Clouds
12:36 AM 73.4 °F 66.4 °F 79% 29.93 in 10.0 mi South 6.9 mph - N/A   Clear
12:55 AM 73.4 °F 66.6 °F 79% 29.93 in 10.0 mi South 8.1 mph - N/A   Clear
1:15 AM 72.9 °F 66.6 °F 81% 29.93 in 10.0 mi South 5.8 mph - N/A   Clear
1:35 AM 72.1 °F 67.1 °F 84% 29.93 in 10.0 mi South 5.8 mph - N/A   Clear
1:55 AM 72.5 °F 67.8 °F 85% 29.92 in 10.0 mi South 6.9 mph - N/A   Clear
2:15 AM 72.5 °F 68.0 °F 86% 29.92 in 10.0 mi South 5.8 mph - N/A   Mostly Cloudy
2:35 AM 72.9 °F 67.8 °F 84% 29.92 in 10.0 mi South 6.9 mph - N/A   Overcast
2:55 AM 72.9 °F 67.5 °F 83% 29.91 in 10.0 mi SSW 5.8 mph - N/A   Overcast
3:15 AM 72.9 °F 66.7 °F 81% 29.90 in 10.0 mi South 8.1 mph - N/A   Overcast
3:35 AM 73.0 °F 66.4 °F 80% 29.89 in 10.0 mi South 6.9 mph - N/A   Overcast
3:55 AM 73.0 °F 66.2 °F 79% 29.87 in 10.0 mi South 9.2 mph - N/A   Scattered Clouds
4:15 AM 73.4 °F 65.7 °F 77% 29.86 in 10.0 mi South 5.8 mph - N/A   Scattered Clouds
4:35 AM 73.4 °F 65.5 °F 76% 29.85 in 10.0 mi SSW 6.9 mph - N/A   Scattered Clouds
4:55 AM 73.4 °F 65.5 °F 76% 29.84 in 10.0 mi SSW 5.8 mph - N/A   Scattered Clouds
5:15 AM 73.2 °F 65.7 °F 77% 29.85 in 10.0 mi SW 5.8 mph - N/A   Clear
5:35 AM 73.6 °F 65.7 °F 76% 29.85 in 10.0 mi SW 8.1 mph - N/A   Clear
5:55 AM 73.6 °F 65.5 °F 76% 29.84 in 10.0 mi SSW 6.9 mph - N/A   Clear
6:15 AM 73.4 °F 65.5 °F 76% 29.84 in 10.0 mi SW 8.1 mph - N/A   Clear
6:35 AM 73.6 °F 65.3 °F 75% 29.82 in 10.0 mi SW 6.9 mph - N/A   Clear
6:56 AM 73.4 °F 64.2 °F 73% 29.82 in 10.0 mi SW 11.5 mph 19.6 mph N/A   Scattered Clouds
7:15 AM 73.0 °F 63.1 °F 71% 29.82 in 10.0 mi SW 11.5 mph 19.6 mph N/A   Mostly Cloudy
7:35 AM 72.5 °F 63.7 °F 74% 29.80 in 10.0 mi SW 6.9 mph - N/A   Overcast
7:56 AM 72.0 °F 63.9 °F 76% 29.79 in 10.0 mi SSW 5.8 mph - N/A   Mostly Cloudy
8:15 AM 72.1 °F 63.1 °F 73% 29.80 in 10.0 mi South 4.6 mph - N/A   Overcast
8:35 AM 70.3 °F 64.4 °F 81% 29.84 in 10.0 mi NW 8.1 mph - N/A   Overcast
8:55 AM 68.9 °F 65.5 °F 89% 29.84 in 4.0 mi Calm Calm - 0.02 in Rain Rain
9:15 AM 68.9 °F 66.4 °F 92% 29.83 in 4.0 mi WSW 5.8 mph - 0.09 in Rain Heavy Rain
9:35 AM 68.2 °F 65.7 °F 92% 29.80 in 4.0 mi South 6.9 mph - 0.18 in Rain Rain
9:55 AM 67.8 °F 65.7 °F 93% 29.81 in 4.0 mi SSW 4.6 mph - 0.24 in Rain Rain
10:15 AM 67.1 °F 66.2 °F 97% 29.80 in 2.0 mi South 3.5 mph - 0.25 in Rain Heavy Rain
10:35 AM 67.3 °F 66.4 °F 97% 29.79 in 2.5 mi SSW 4.6 mph - 0.33 in Rain Light Rain
10:56 AM 67.5 °F 66.4 °F 96% 29.78 in 5.0 mi SSE 5.8 mph - 0.33 in   Drizzle
11:15 AM 67.5 °F 66.6 °F 97% 29.77 in 7.0 mi Calm Calm - N/A   Overcast
11:35 AM 68.5 °F 67.3 °F 96% 29.76 in 7.0 mi SSW 4.6 mph - N/A   Overcast
11:56 AM 69.1 °F 67.8 °F 96% 29.76 in 10.0 mi South 8.1 mph - N/A   Overcast
12:15 PM 69.6 °F 68.4 °F 96% 29.75 in 7.0 mi SW 10.4 mph - N/A   Overcast
12:35 PM 70.3 °F 68.9 °F 95% 29.75 in 7.0 mi WSW 9.2 mph - N/A   Overcast
12:55 PM 70.7 °F 69.3 °F 95% 29.75 in 5.0 mi SW 8.1 mph 17.3 mph N/A   Overcast
1:15 PM 71.1 °F 69.6 °F 95% 29.75 in 5.0 mi West 9.2 mph 16.1 mph N/A   Overcast
1:35 PM 71.6 °F 69.4 °F 93% 29.75 in 7.0 mi West 8.1 mph - N/A   Overcast
1:55 PM 73.8 °F 70.0 °F 88% 29.75 in 10.0 mi West 13.8 mph 17.3 mph N/A   Mostly Cloudy
2:15 PM 74.5 °F 69.4 °F 84% 29.75 in 10.0 mi West 12.7 mph - N/A   Overcast
2:35 PM 74.3 °F 69.4 °F 85% 29.75 in 10.0 mi West 15.0 mph - N/A   Overcast
2:55 PM 74.1 °F 67.8 °F 81% 29.75 in 10.0 mi West 8.1 mph - N/A   Overcast
3:15 PM 72.5 °F 68.0 °F 86% 29.75 in 10.0 mi WSW 5.8 mph - N/A   Overcast
3:35 PM 74.3 °F 67.5 °F 79% 29.75 in 10.0 mi West 11.5 mph 18.4 mph N/A   Overcast
3:55 PM 73.0 °F 67.3 °F 82% 29.75 in 10.0 mi West 13.8 mph 18.4 mph N/A   Overcast
4:15 PM 72.5 °F 67.6 °F 85% 29.75 in 10.0 mi WNW 6.9 mph - N/A   Overcast
4:35 PM 73.4 °F 67.8 °F 83% 29.76 in 10.0 mi NW 8.1 mph - N/A   Overcast
4:55 PM 71.2 °F 67.3 °F 87% 29.77 in 7.0 mi NNW 10.4 mph - N/A Rain Light Rain
5:15 PM 71.1 °F 68.4 °F 91% 29.77 in 10.0 mi North 8.1 mph - N/A   Overcast
5:35 PM 71.6 °F 67.6 °F 87% 29.77 in 10.0 mi North 12.7 mph 16.1 mph N/A   Overcast
5:55 PM 73.4 °F 66.9 °F 80% 29.77 in 10.0 mi North 12.7 mph 18.4 mph N/A   Scattered Clouds
6:15 PM 72.9 °F 66.6 °F 81% 29.77 in 10.0 mi North 10.4 mph 19.6 mph N/A   Mostly Cloudy
6:35 PM 73.0 °F 67.1 °F 82% 29.78 in 10.0 mi North 8.1 mph - N/A   Scattered Clouds
6:55 PM 72.3 °F 66.7 °F 83% 29.79 in 10.0 mi North 6.9 mph - N/A   Scattered Clouds
7:15 PM 71.8 °F 66.9 °F 85% 29.79 in 10.0 mi North 4.6 mph - N/A   Mostly Cloudy
7:35 PM 71.6 °F 66.9 °F 85% 29.80 in 10.0 mi North 5.8 mph - N/A   Overcast
7:55 PM 71.2 °F 66.7 °F 86% 29.81 in 10.0 mi NNE 8.1 mph - N/A   Overcast
8:15 PM 70.3 °F 65.3 °F 84% 29.82 in 10.0 mi NNE 11.5 mph - N/A   Scattered Clouds
8:35 PM 69.8 °F 64.8 °F 84% 29.83 in 10.0 mi NE 10.4 mph - N/A   Clear
8:55 PM 69.8 °F 64.9 °F 84% 29.84 in 10.0 mi NNE 8.1 mph - N/A   Mostly Cloudy
9:16 PM 68.5 °F 64.8 °F 88% 29.85 in 10.0 mi NNE 5.8 mph - N/A   Mostly Cloudy
9:35 PM 67.5 °F 65.3 °F 93% 29.85 in 10.0 mi North 5.8 mph - N/A   Overcast
9:55 PM 68.4 °F 65.7 °F 91% 29.85 in 10.0 mi North 6.9 mph - N/A   Overcast
10:16 PM 68.5 °F 65.1 °F 89% 29.85 in 10.0 mi NNE 10.4 mph - N/A   Overcast
10:35 PM 68.9 °F 63.9 °F 84% 29.85 in 10.0 mi NNE 10.4 mph - N/A   Overcast
10:55 PM 68.2 °F 63.7 °F 85% 29.85 in 10.0 mi NNE 6.9 mph - N/A   Mostly Cloudy
11:15 PM 67.3 °F 63.5 °F 88% 29.85 in 10.0 mi NE 9.2 mph - N/A   Scattered Clouds
11:35 PM 67.1 °F 63.1 °F 87% 29.87 in 10.0 mi NNE 8.1 mph - N/A   Clear
11:56 PM 66.9 °F 63.3 °F 88% 29.86 in 10.0 mi NE 9.2 mph - N/A   Scattered Clouds